I Watch It For The Plot // 9.41 TiB free of 112 TiB

c File Name Size Date
parent folder--
-1434176.json44512018-11-22 12:31:12
-1659921.json49312018-11-23 21:58:37
-1659921_2370749_assassincarl_giftdrgwenfa.jpg10147642018-11-23 21:58:37
-1795814.json44812019-02-01 04:33:32
-1795814_2575297_assassincarl_skyepatrolfa.jpg9911432019-02-01 04:33:32
-2066347.json47342020-01-17 17:09:49
-2066347_2988210_assassincarl_hopkinsmacrofa.jpg35739702020-01-17 17:09:49
-2066348.json47152020-01-17 17:09:50
-2066348_2988211_assassincarl_whispercommfa.jpg9162662020-01-17 17:09:50
-2066349.json48182020-01-17 17:09:50
-2066349_2988212_assassincarl_pokebeaangelicafa.jpg9273632020-01-17 17:09:50
-2077761.json41922020-02-01 04:39:32
-2077761_3005682_assassincarl_bosspigcommfa.jpg9321132020-02-01 04:39:32
-2077762.json42522020-02-01 04:39:32
-2077762_3005683_assassincarl_clean_up_isabellefa.jpg9358292020-02-01 04:39:33
-2078622.json42052020-02-02 06:42:40
-2078622_3007011_assassincarl_goatmomblocksyourpathfa.jpg4191152020-02-02 06:42:40
-2080811.json45462020-02-05 11:26:38
-2080811_3010377_assassincarl_giftmeltingfoxyfa.jpg3983802020-02-05 11:26:38
-2080813.json41412020-02-05 11:26:39
-2080813_3010379_assassincarl_waifusawyerfa.jpg9097732020-02-05 11:26:39
-2086867.json42022020-02-13 10:47:56
-2086867_3019570_assassincarl_hollyhockrubyfa.jpg7089212020-02-13 10:47:56
-2096144.json47052020-02-25 18:57:33
-2096144_3033340_assassincarl_mayanglebuttfa.jpg12406332020-02-25 18:57:34
-2109338.json43122020-03-16 01:41:16
-2109338_3053473_assassincarl_pearlkrabsfa.jpg8333982020-03-16 01:41:16
-2113288.json46152020-03-21 02:55:49
-2113288_3059471_assassincarl_nicolewattersonfa.jpg8125222020-03-21 02:55:49
-2113289.json46472020-03-21 02:57:58
-2113289_3059474_assassincarl_piggywineryfa.jpg8444322020-03-21 02:57:59
-2116596.json52672020-03-27 15:09:26
-2116596_3064634_assassincarl_roliephatgirlxoverfa.jpg8610812020-03-27 15:09:26
-2116944.json46702020-03-27 15:12:13
-2116944_3065108_assassincarl_axelacekittybikiniwitchfa.jpg6311862020-03-27 15:12:14
-2122854.json47012020-04-02 15:36:18
-2122854_3074275_assassincarl_commjak55fa.jpg12901872020-04-02 15:36:18
-2122855.json46792020-04-02 15:36:19
-2122855_3074276_assassincarl_gifttysonfa.jpg5920662020-04-02 15:36:19
-2129157.json46132020-04-10 02:12:59
-2129157_3084699_assassincarl_hyperassdeertankfa.jpg9872852020-04-10 02:13:00
-2130543.json47872020-04-11 18:51:33
-2130543_3086864_assassincarl_streaming_pic.jpg37735232020-04-11 18:51:34
-2132056.json48142020-04-13 07:07:53
-2132056_3089168_assassincarl_gloria_melmanfa.jpg10346772020-04-13 07:07:53
-2136990.json48422020-04-19 05:21:57
-2136990_3096438_assassincarl_6_charcter_challenge_fa.jpg14224992020-04-19 05:21:58
-2137186.json45892020-04-19 13:49:36
-2137186_3096811_assassincarl_babselfiefa.jpg9636512020-04-19 13:49:36
-2139486.json47272020-04-22 02:56:52
-2139486_3100425_assassincarl_deviant1over2commfa.jpg13499182020-04-22 02:56:53
-2140930.json42912020-09-27 04:24:05
-2140930_3102611_assassincarl_blackspringfa.jpg6975242020-09-27 04:24:06
-2143730.json49482020-04-27 07:52:37
-2143730_3106980_assassincarl_queenmayqiyanafa.jpg10770022020-04-27 07:52:38
-2154117.json48942020-05-09 12:09:34
-2154117_3123171_assassincarl_cmdbuttsmacker_commfa.jpg2935492020-05-09 12:09:35
-2161630.json53002020-05-18 13:55:56
-2161630_3134916_assassincarl_commcommander_buttsmackergloria_annonfa.jpg6477902020-05-18 13:55:56
-2161631.json52922020-05-18 13:55:56
-2161631_3134917_assassincarl_jak55commfa.jpg9144972020-05-18 13:55:57
-2176566.json47632020-06-07 03:04:45
-2176566_3158820_assassincarl_thiccshyfa.jpg9646132020-06-07 03:04:45
-2191463.json49552020-06-26 10:07:53
-2191463_3181652_assassincarl_cvelcroprice_fat_midnafa.jpg4822352020-06-26 10:07:54
-2191464.json49612020-06-26 10:09:58
-2191464_3181653_assassincarl_commbrizzarcadefa.jpg8284772020-06-26 10:10:00
-2191465.json51432020-06-26 10:10:00
-2191465_3181654_assassincarl_rexandmay_pharah_and_mercyfa.jpg11697442020-06-26 10:10:02
-2201107.json46612020-07-08 20:09:30
-2201107_3197351_assassincarl_bigtiddygothgfatbeachfa.jpg9104552020-07-08 20:09:34
-2205360.json45982020-07-14 07:07:00
-2205360_3203768_assassincarl_afraidofheightsfa.jpg6807732020-07-14 07:07:00
-2211191.json52322020-07-21 20:16:22
-2211191_3212494_assassincarl_rouge_and_may_vs_the_baddiesfa.jpg11641552020-07-21 20:16:23
-2214095.json50662020-07-26 08:33:51
-2214095_3216911_assassincarl_bellahypertaurfa.jpg10206292020-07-26 08:33:52
-2221754.json52402020-08-03 20:15:58
-2221754_3228764_assassincarl_xj9buttsmackercommfa.jpg5770192020-08-03 20:15:59
-2221756.json46862020-08-03 20:16:02
-2221756_3228766_assassincarl_fatbearweekfa.jpg7430792020-08-03 20:16:03
-2228810.json50592020-08-13 02:38:11
-2228810_3239930_assassincarl_tsunoda_in_the_hallwayfa.jpg9945622020-08-13 02:38:15
-2230697.json51882020-08-15 22:13:06
-2230697_3242721_assassincarl_atwadremakefa.jpg5393132020-08-15 22:13:07
-2236484.json45102020-08-23 12:29:40
-2236484_3251438_assassincarl_bernicefa.jpg8506512020-08-23 12:29:43
-2243097.json50472020-08-31 20:37:26
-2243097_3261388_assassincarl_commbrizzbouncecastlehopfa.jpg11752892020-08-31 20:37:29
-2244450.json47382020-09-02 05:03:12
-2244450_3263610_assassincarl_sailormarstessfa.jpg10867322020-09-02 05:03:15
-2246875.json52152020-09-05 17:38:30
-2246875_3267409_assassincarl_deviant1over2comm2fa.jpg5367562020-09-05 17:38:31
-2253923.json49602020-09-14 10:44:08
-2253923_3277884_assassincarl_robogloriafa.jpg3518282020-09-14 10:44:09
-2254265.json46442020-09-14 19:07:32
-2254265_3278362_assassincarl_2020_commission_pricesfa.jpg5182482020-09-14 19:07:33
-2261561.json47112020-09-30 06:17:30
-2261561_3289459_assassincarl_thotpolicecarmilta.jpg9096142020-09-30 06:17:31
-2262618.json43772020-09-30 07:30:22
-2262618_3291251_assassincarl_blm.jpg33311112020-09-30 07:30:24
-2263207.json46872020-09-30 08:20:20
-2263207_3292145_assassincarl_hopkinscommfa.jpg8026182020-09-30 08:20:21
-2266392.json49302020-09-30 12:11:45
-2266392_3297150_assassincarl_flareonfordomecommfa.jpg4313302020-09-30 12:11:46
-2266393.json50492020-09-30 12:11:46
-2266393_3297151_assassincarl_flareonfordomecommgasaltfa.jpg6668022020-09-30 12:11:48
-2268943.json52142020-10-10 11:40:17
-2268943_3302450_assassincarl_rarabotbuttjobfa.jpg5787162020-10-10 11:40:18
-2269141.json49132020-10-10 11:52:32
-2269141_3301529_assassincarl_jessoktoberfestfa.jpg8874292020-10-10 11:52:33
-2270806.json45632020-10-12 02:41:19
-2270806_3304265_assassincarl_froppybubblebutt.jpg4770182020-10-12 02:41:20
-2272276.json53692020-10-12 04:09:15
-2272276_3306713_assassincarl_brandyoutgrowsmallfa.jpg6359702020-10-12 04:09:16
-2276605.json53092020-10-12 08:41:51
-2276605_3313344_assassincarl_sf5ultimatekoalt.jpg10695812020-10-12 08:41:52
-2276613.json54102020-10-12 08:42:07
-2276613_3313352_assassincarl_sf5ultimatefakazevisable.jpg10034702020-10-12 08:42:09
-2278615.json49032020-10-15 08:53:27
-2278615_3317565_assassincarl_roseqtrampstampfa.jpg4855372020-10-15 08:53:29
-2278945.json49882020-10-15 09:12:25
-2278945_3318042_assassincarl_gwensuccgiftfa.jpg7110282020-10-15 09:12:26
-2285636.json49402020-10-23 18:22:08
-2285636_3329054_assassincarl_rarcadencebotsfa.jpg11052852020-10-23 18:22:12
-2288257.json48272020-10-26 22:48:14
-2288257_3332967_assassincarl_dukecidercellerfa.jpg7976132020-10-26 22:48:15
-2300703.json46902020-11-12 18:38:06
-2300703_3352944_assassincarl_bigbellybrizzfa.jpg5769972020-11-12 18:38:08
-2300705.json49002020-11-12 18:38:12
-2300705_3352946_assassincarl_gloriabighabfa.jpg5995832020-11-12 18:38:13
-2317420.json47402020-12-05 00:06:32
-2317420_3381535_assassincarl_stuckbeth.jpg3854762020-12-05 00:06:33
-2321889.json51442020-12-07 13:55:26
-2321889_3388711_assassincarl_robogloriafa1.jpg6122162020-12-07 13:55:28
-2324163.json50512020-12-10 09:27:29
-2324163_3392472_assassincarl_dukeapplepickinfa.jpg8488562020-12-10 09:27:30
-2349463.json51122021-01-12 12:19:32
-2349463_3432089_assassincarl_rosecassdinerfa.jpg8040292021-01-12 12:19:32
-2349464.json48492021-01-12 12:21:34
-2349464_3432090_assassincarl_cufloydcomm1280.jpg22756602021-01-12 12:21:35
-2349465.json47372021-01-12 12:21:36
-2349465_3432091_assassincarl_gloriasketch.jpg3408332021-01-12 12:21:36
-2349466.json44942021-01-12 12:35:38
-2349466_3432093_assassincarl_cowconniefa.jpg11719582021-01-12 12:35:39
-2363077.json47292021-01-29 11:43:00
-2363077_3454365_assassincarl_fishtankfa.jpg9360842021-01-29 11:43:04
-2368116.json48642021-02-04 17:19:21
-2368116_3462779_assassincarl_aggretsuko.jpg30293272021-02-04 17:19:28
-2377860.json48812021-02-17 00:12:43
-2377860_3478810_assassincarl_honeyslimemay.jpg47251742021-02-17 00:12:44
-2388560.json47822021-03-04 06:16:53
-2388560_3496324_assassincarl_berenstainmomfa.jpg25273272021-03-04 06:16:58
-2396069.json47712021-03-12 06:54:24
-2396069_3508145_assassincarl_atlordantera.jpg34120482021-03-12 06:54:26
-2404327.json49192021-03-23 23:06:49
-2404327_3521458_assassincarl_acerequestfa.jpg4448722021-03-23 23:06:50
-2405742.json51052021-04-02 21:43:30
-2405742_3523631_assassincarl_newjenna.jpg13874672021-04-02 21:43:35
-2411289.json45772021-04-03 14:18:49
-2411289_3532181_assassincarl_first_pump.jpg10607422021-04-03 14:18:54
-2414194.json50142021-04-05 13:18:41
-2414194_3536711_assassincarl_brandpart4.jpg8430142021-04-05 13:18:44
-2414423.json49892021-04-05 14:02:24
-2414423_3537071_assassincarl_april_easter.jpg3700262021-04-05 14:02:26
-2420346.json48342021-10-18 16:26:32
-2420346_3546608_assassincarl_shriektrampstamp.jpg3162122021-10-18 16:26:32
-2421707.json49752021-10-18 16:48:23
-2421707_3548733_assassincarl_robogloriacommfa.jpg4301782021-10-18 16:48:24
-2421934.json51232021-10-18 16:52:38
-2421934_3549123_assassincarl_cufloydlapdancefa.jpg10554432021-10-18 16:52:38
-2429847.json61682021-10-19 08:31:37
-2429847_3561477_assassincarl_thechase.jpg37062222021-10-19 08:31:46
-2429848.json63112021-10-19 08:31:46
-2429848_3561478_assassincarl_theescape.jpg35646882021-10-19 08:31:54
-2436538.json45962021-10-19 17:35:08
-2436538_3572065_assassincarl_10_year_compairson.jpg23358392021-10-19 17:35:09
-2436541.json55812021-10-19 17:35:10
-2436541_3572068_assassincarl_10_year_lookback.jpg16731532021-10-19 17:35:10
-2445916.json48122021-10-20 15:59:10
-2445916_3587178_assassincarl_gloriafnaf_fa.jpg4279742021-10-20 15:59:10
-2445917.json50822021-10-20 15:59:11
-2445917_3587179_assassincarl_mountainsinflorida_fa.jpg9608502021-10-20 15:59:11
-2447650.json49742021-10-20 16:27:29
-2447650_3589890_assassincarl_summerpooltsuyufa.jpg12876722021-10-20 16:27:29
-2448933.json48222021-10-20 16:52:44
-2448933_3591933_assassincarl_elephantstrainfa.jpg10390502021-10-20 16:52:45
-2451307.json47822021-10-20 17:26:56
-2451307_3595666_assassincarl_i_have_become_one_with_the_bug_fa.jpg3950302021-10-20 17:26:56
-2453979.json51072021-10-20 22:27:48
-2453979_3600178_assassincarl_msfrizzlefa.jpg9428122021-10-20 22:27:49
-2464407.json52312021-10-21 11:16:50
-2464407_3617042_assassincarl_hopbrizzshowerfa.jpg11361162021-10-21 11:16:51
-2464771.json65082021-10-21 11:37:14
-2464771_3617579_assassincarl_comm_prices_2021.jpg31217722021-10-21 11:37:15
-2470600.json47192021-10-21 18:37:30
-2470600_3626768_assassincarl_maybodytypefa.jpg2808052021-10-21 18:37:31
-2478875.json45872021-12-07 19:19:01
-2478875_3640004_assassincarl_stpattyfa.jpg8287292021-12-07 19:19:01
-2486193.json53152021-10-22 16:09:31
-2486193_3651902_assassincarl_commbasholiviawallsquashfa.jpg12628642021-10-22 16:09:32
-2486194.json52812021-10-22 16:09:32
-2486194_3651903_assassincarl_commbasholiviawallsquashgasfa.jpg12207002021-10-22 16:09:32
-2486653.json45012021-10-22 17:04:04
-2486653_3652591_assassincarl_ax_rvvlc.png4850512021-10-22 17:04:04
-2486654.json45112021-10-22 17:04:04
-2486654_3652592_assassincarl_nj9yno_j.png5835652021-10-22 17:04:07
-2488700.json52782021-10-22 20:46:31
-2488700_3655870_assassincarl_commgaussxfrizzlekissfa.jpg8045362021-10-22 20:46:33
-2514534.json46332021-10-24 12:44:13
-2514534_3698790_assassincarl_wammawink.jpg4397522021-10-24 12:44:14
-2542945.json45072021-10-26 05:59:31
-2542945_3745199_assassincarl_pickles.jpg6698242021-10-26 05:59:32
-2546604.json48082021-10-26 10:13:55
-2546604_3751019_assassincarl_jess_coffee_shoppe_meme.jpg8483972021-10-26 10:13:56
-2558961.json53082021-10-27 03:42:01
-2558961_3770875_assassincarl_isabellescooter_heavier_than_sora_joke.jpg11387032021-10-27 03:42:02
-2565293.json54982021-10-27 11:55:05
-2565293_3780994_assassincarl_noributtarttradefa.jpg5716792021-10-27 11:55:05
-2567923.json48832021-11-08 20:20:58
-2567923_3786032_assassincarl_maymaka.jpg7610152021-11-08 20:20:58
-2572427.json50532021-11-08 21:17:36
-2572427_3793366_assassincarl_gwentatsumaki.jpg11591242021-11-08 21:17:36
-2590869.json44702021-12-07 17:36:26
-2590869_3823193_assassincarl_waterbaby.jpg7774632021-12-07 17:36:26
-2594489.json45772021-12-07 18:04:48
-2594489_3828944_assassincarl_umecoalpawcommfa.jpg6822342021-12-07 18:04:48
-2613413.json47052022-01-03 23:25:11
-2613413_3859193_assassincarl_welcometothegardenclub.jpg10704192022-01-03 23:25:12
-2621022.json45402022-01-16 23:14:44
-2621022_3871725_assassincarl_junostretch.jpg6866002022-01-16 23:14:44
-2623383.json48092022-01-16 23:37:30
-2623383_3875428_assassincarl_anonrobohippocomfa.jpg6314242022-01-16 23:37:30
-2624507.json45512022-01-23 11:03:05
-2624507_3877266_assassincarl_pikachuusesthunderfa.jpg13355692022-01-23 11:03:05
-2639916.json48002022-02-06 11:29:13
-2639916_3901565_assassincarl_maymayfa.jpg9509782022-02-06 11:29:14
-2648903.json47702022-02-13 12:43:14
-2648903_3915660_assassincarl_brandy_6_fa.jpg6031672022-02-13 12:43:14
-2656070.json46602022-02-27 11:27:55
-2656070_3927051_assassincarl_thiccshyguyfa.jpg5251962022-02-27 11:27:56
-2669288.json49022022-03-13 11:34:57
-2669288_3948163_assassincarl_flamenadicommfa.jpg11133202022-03-13 11:34:58
-550947.json50382018-11-19 00:50:42
-550948.json52652018-11-19 00:50:42
-550950.json48152018-11-19 00:50:42
-550951.json52792018-11-19 00:50:42
-562100.json42722018-11-19 01:04:40
-562105.json43092018-11-19 01:04:41
-572898.json42442018-11-19 01:18:13
-584853.json45122018-11-19 01:33:32
-590898.json43702018-11-19 01:41:39
-686472.json42412018-11-19 03:48:22
-686473.json45962018-11-19 03:48:23
-912363.json48832018-11-19 08:52:35
-921110.json48542018-11-19 09:05:10
-929908.json45132018-11-19 09:18:00
-961888.json44082018-11-19 10:04:01
-980350.json46592018-11-19 10:31:39

control-panel